This is the latest recevied weather packets stored in our database for station/object KC1IUC-15. If no packets are shown the sender has not sent any weather packets the latest 10 day(s).
| Time | Temp. | Humidity | Pressure | Rain* | Wind** | Luminosity | Snow |
|---|---|---|---|---|---|---|---|
| 1778029503 | 17.78° C | 61% | 1008.9 hPa | 0 mm | - | 0 W/m² | - |
| 1778029203 | 17.78° C | 61% | 1008.6 hPa | 0 mm | - | 0 W/m² | - |
| 1778028903 | 18.33° C | 60% | 1008.6 hPa | 0 mm | - | 0 W/m² | - |
| 1778028604 | 18.33° C | 60% | 1008.6 hPa | 0 mm | - | 0 W/m² | - |
| 1778028303 | 18.33° C | 59% | 1008.6 hPa | 0 mm | - | 0 W/m² | - |
| 1778028003 | 18.33° C | 59% | 1008.2 hPa | 0 mm | - | 0 W/m² | - |
| 1778027703 | 18.89° C | 59% | 1007.9 hPa | 0 mm | - | 0 W/m² | - |
| 1778027403 | 18.89° C | 58% | 1007.9 hPa | 0 mm | - | 0 W/m² | - |
| 1778027103 | 18.89° C | 58% | 1008.2 hPa | 0 mm | - | 0 W/m² | - |
| 1778026803 | 18.89° C | 58% | 1007.9 hPa | 0 mm | - | 0 W/m² | - |
| 1778026503 | 18.89° C | 58% | 1007.9 hPa | 0 mm | - | 0 W/m² | - |
| 1778026203 | 18.89° C | 59% | 1007.9 hPa | 0 mm | - | 0 W/m² | - |
| 1778025903 | 18.89° C | 58% | 1007.5 hPa | 0 mm | - | 0 W/m² | - |
| 1778025603 | 18.89° C | 58% | 1007.9 hPa | 0 mm | - | 0 W/m² | - |
| 1778025303 | 19.44° C | 58% | 1007.5 hPa | 0 mm | - | 1 W/m² | - |
| 1778025003 | 19.44° C | 58% | 1007.5 hPa | 0 mm | - | 2 W/m² | - |
| 1778024703 | 19.44° C | 57% | 1007.5 hPa | 0 mm | - | 4 W/m² | - |
| 1778024403 | 20° C | 57% | 1007.5 hPa | 0 mm | - | 6 W/m² | - |
| 1778024104 | 20° C | 56% | 1007.5 hPa | 0 mm | - | 9 W/m² | - |
| 1778023803 | 20° C | 56% | 1007.5 hPa | 0 mm | - | 13 W/m² | - |
| 1778023503 | 20° C | 56% | 1007.2 hPa | 0 mm | - | 18 W/m² | - |
| 1778023203 | 20° C | 55% | 1007.5 hPa | 0 mm | - | 23 W/m² | - |
| 1778022903 | 20.56° C | 55% | 1007.2 hPa | 0 mm | - | 29 W/m² | - |
| 1778022603 | 20.56° C | 55% | 1007.2 hPa | 0 mm | - | 35 W/m² | - |
| 1778022303 | 20.56° C | 55% | 1007.2 hPa | 0 mm | - | 39 W/m² | - |
* Rain latest hour (hover to see other rain measurements)
** Current wind speed in m/s (hover to see current wind gust speed)